Regional Weather Roundup
Issued by NWS Newport/Morehead, NC

Current Version | Previous Version | Graphics & Text | Print | Product List | Glossary Off
Versions: 1 2 3 4 5 6 7 8 9 10 11 12 13 14 15 16 17 18 19 20 21 22 23 24 25 26 27 28 29 30 31 32 33 34 35 36 37 38 39 40 41 42 43 44 45 46 47 48 49 50

000
ASUS42 KMHX 311810
RWRMHX
WEATHER ROUNDUP FOR EASTERN NORTH CAROLINA
NATIONAL WEATHER SERVICE NEWPORT/MOREHEAD CITY NC
100 PM EST SAT JAN 31 2015

NOTE: "FAIR" INDICATES FEW OR NO CLOUDS BELOW 12,000 FEET
WITH NO SIGNIFICANT WEATHER AND/OR OBSTRUCTIONS TO VISIBILITY

NCZ015>017-031-032-045>047-102-103-311900-
NORTH COAST

CITY           SKY/WX    TMP DP  RH WIND       PRES   REMARKS
EDENTON        SUNNY     39   8  27 N14G20    30.32F
ELIZABETH CITY SUNNY     38   8  29 NW13G22   30.31F
KITTY HAWK     CLEAR     36   6  29 NW8G16    30.28F
MANTEO         SUNNY     36   9  32 NW14G22   30.30F

$$

NCZ045>047-081-094-103-104-311900-
CENTRAL COAST

CITY           SKY/WX    TMP DP  RH WIND       PRES   REMARKS
FRISCO         SUNNY     37  15  40 N9G16     30.31F
SWANQUARTER    NOT AVBL

$$

NCZ095-097-098-100-101-311900-
SOUTHERN COAST

CITY           SKY/WX    TMP DP  RH WIND       PRES   REMARKS
BEAUFORT       SUNNY     43  12  28 NW12      30.34F
CEDAR ISLAND   NOT AVBL
JACKSONVILLE   SUNNY     43   8  23 N7        30.35F
PINEY ISLAND     N/A    N/A N/A N/A MISG      30.34F
WILMINGTON     SUNNY     46   9  22 N8        30.36F


$$

NCZ011>013-027>030-043-044-078>080-089-090>093-098-311900-
COASTAL PLAIN

CITY           SKY/WX    TMP DP  RH WIND       PRES   REMARKS
AHOSKIE        SUNNY     38   6  25 NW3       30.32F
CLINTON        SUNNY     45   9  23 NW10      30.36F
ELIZABETHTOWN  SUNNY     45   3  17 NW6       30.36F
GOLDSBORO      SUNNY     28  16  59 CALM      30.31S
GREENVILLE     SUNNY     41   7  24 NW5       30.34F
HAVELOCK       SUNNY     43   7  22 NW12      30.35F
KENANSVILLE    SUNNY     42   6  22 NW6       30.36F
KINSTON        SUNNY     43   7  22 CALM      30.35F
NEW BERN       SUNNY     44   7  21 N7        30.35F
RICHLANDS      SUNNY     43  10  26 NW7       30.36F
ROCKY MOUNT    SUNNY     43   5  20 NW10      30.34F
WASHINGTON     SUNNY     40   5  22 N9        30.33F
WHITEVILLE     SUNNY     46   4  17 N5        30.36F

$$

AMZ130-135-150-152-154-156-158-170-250-252-270-ANZ085-086-088-633-658-670-311900-
MARINE OBSERVATIONS

STATION/POSITION TIME  TEMP    WIND        PRES    WAVE   SWELL
                       AIR SEA DIR/SP/G            HT/PER HT/PER
                 (UTC) (F)     (DEG/KT/KT) (MB)    (FT/S) (FT/S)
CHESAPEAKE LIGHT 1700   29     320/ 24/ 27 1026.9
64 E VA BEACH    1800   31 48  330/ 25/ 29 1023.7   10/ 8
DUCK             1800   31 40  330/ 20/ 23 1025.1
2 E DUCK         1800      41                N/A     5/ 9   2/11
10 NE DUCK       1800      43                N/A     7/ 8   2/11
OREGON INLET     1800   33 39  310/ 14/ 19 1026.0
13E OREGON INLT  1800      45                N/A     9/ 7   2/11
HATTERAS CG      1800   33 40  340/ 20/ 25 1026.8
DIAMOND BUOY     1800   35 59  340/ 21/ 27 1025.9    7/ 8   3/10
17 S OCRACOKE    NOT AVBL
CAPE LOOKOUT     1700   37     340/ 12/ 14 1027.6
BEAUFORT LAB     1800   40 44  350/  4/ 10 1026.5
27 SE WRIGHTSVLE NOT AVBL
5 SE WRIGHTSVLE  1700   40 51   10/  8/ 10 1028.5
225 S CAPE HAT   1730   54 69  340/ 19/ 25 1024.5   12/ 9
41 SE CHARLESTON 1800   46 67   20/ 12/ 16 1028.2    5/ 7   3/ 7

$$


USA.gov is the U.S. government's official web portal to all federal, state and local government web resources and services.